TimeCDT,TemperatureF,Dew PointF,Humidity,Sea Level PressureIn,VisibilityMPH,Wind Direction,Wind SpeedMPH,Gust SpeedMPH,PrecipitationIn,Events,Conditions,WindDirDegrees,DateUTC
12:53 AM,51.1,46.0,83,30.28,10.0,ENE,5.8,-,N/A,,Clear,60,2013-04-26 05:53:00
1:53 AM,53.6,46.4,77,30.26,10.0,East,4.6,-,N/A,,Clear,80,2013-04-26 06:53:00
2:53 AM,52.0,46.0,80,30.24,10.0,Calm,Calm,-,N/A,,Clear,0,2013-04-26 07:53:00
3:53 AM,53.1,45.0,74,30.22,10.0,Calm,Calm,-,N/A,,Clear,0,2013-04-26 08:53:00
4:53 AM,52.0,45.0,77,30.24,10.0,Calm,Calm,-,N/A,,Clear,0,2013-04-26 09:53:00
5:53 AM,48.9,45.0,86,30.27,10.0,ENE,4.6,-,N/A,,Clear,60,2013-04-26 10:53:00
6:53 AM,53.1,46.0,77,30.28,10.0,ENE,4.6,-,N/A,,Overcast,60,2013-04-26 11:53:00
7:53 AM,55.0,46.9,74,30.29,10.0,ENE,3.5,-,N/A,,Overcast,70,2013-04-26 12:53:00
8:53 AM,59.0,46.9,64,30.28,10.0,SE,3.5,-,N/A,,Clear,140,2013-04-26 13:53:00
9:53 AM,64.9,46.9,52,30.29,10.0,Variable,3.5,-,N/A,,Mostly Cloudy,0,2013-04-26 14:53:00
10:53 AM,68.0,48.0,49,30.29,10.0,Variable,4.6,-,N/A,,Partly Cloudy,0,2013-04-26 15:53:00
11:53 AM,70.0,51.1,51,30.27,10.0,SSE,5.8,-,N/A,,Mostly Cloudy,150,2013-04-26 16:53:00
12:53 PM,73.0,55.0,53,30.25,10.0,SSE,8.1,-,N/A,,Mostly Cloudy,160,2013-04-26 17:53:00
1:53 PM,73.9,57.9,57,30.24,10.0,SSE,6.9,-,N/A,,Overcast,160,2013-04-26 18:53:00
2:53 PM,73.0,57.9,59,30.22,10.0,South,9.2,16.1,N/A,,Overcast,190,2013-04-26 19:53:00
3:53 PM,73.9,59.0,59,30.18,10.0,South,8.1,-,N/A,,Overcast,180,2013-04-26 20:53:00
4:53 PM,73.0,59.0,61,30.19,10.0,Calm,Calm,-,N/A,,Overcast,0,2013-04-26 21:53:00
5:53 PM,73.0,60.1,64,30.17,10.0,Calm,Calm,-,N/A,,Overcast,0,2013-04-26 22:53:00
6:53 PM,72.0,61.0,68,30.16,10.0,Calm,Calm,-,N/A,,Overcast,0,2013-04-26 23:53:00
7:53 PM,71.1,61.0,70,30.17,10.0,Calm,Calm,-,N/A,,Overcast,0,2013-04-27 00:53:00
8:53 PM,66.9,62.1,84,30.17,10.0,Calm,Calm,-,N/A,,Mostly Cloudy,0,2013-04-27 01:53:00
9:53 PM,68.0,61.0,78,30.15,10.0,East,3.5,-,N/A,,Overcast,100,2013-04-27 02:53:00
10:53 PM,66.0,62.1,87,30.16,10.0,Calm,Calm,-,N/A,,Mostly Cloudy,0,2013-04-27 03:53:00
11:53 PM,66.9,62.1,84,30.16,10.0,Calm,Calm,-,N/A,,Overcast,0,2013-04-27 04:53:00